Simultaneous Nadir Overpasses (SNOs) Predictions

Prediction of SNOs between GOES-17 and METOP-C Satellite Orbit:

Table of predicted SNOs for the next 14.0 days since TLE Epoch: 7/14/2024
Index Date Time (GOES-17) GOES-17 Lat,Lon METOP-C Lat,Lon Distance(km) Time Diff (sec)
1 07/14/2024 16:44:11 -0.01,-104.73 0.85,-108.64 445.42 80
2 07/15/2024 16:23:31 -0.00,-104.73 -0.25,-103.64 124.16 80
3 07/17/2024 04:45:12 -0.01,-104.71 -0.79,-108.23 401.75 80
4 07/18/2024 04:21:52 -0.00,-104.70 0.32,-103.23 167.39 80
5 07/19/2024 16:40:44 0.00,-104.73 0.72,-107.79 349.61 80
6 07/20/2024 16:22:45 0.00,-104.72 -0.45,-102.80 219.48 80
7 07/22/2024 04:41:44 -0.00,-104.69 -0.62,-107.38 306.81 80
8 07/23/2024 04:18:25 0.00,-104.69 0.50,-102.39 262.25 80
9 07/24/2024 16:37:17 -0.01,-104.71 0.47,-106.95 254.75 80
10 07/25/2024 16:19:18 -0.01,-104.71 -0.65,-101.96 314.58 80
11 07/27/2024 04:38:17 0.01,-104.69 -0.39,-106.54 210.96 80
